This demonstration page uses our WeatherBlox Daily Observations layout. Learn more.

Left ArrowRight Arrow

34.02893, -84.19858

Hourly Observations for April 13, 2019

Temp ( °F °C ) Dew Point ( °F °C ) Humidity (%) Winds ( mph kmh ) Pressure ( in mb ) Visibility ( mi km ) Precip ( " mm )
12:53 am 00:53 Clear 62 16.7 58 14.4 86 86 Calm 30.01 1016 10 16 0.00 0.00
1:53 am 01:53 Clear 60 15.6 58 14.4 93 93 Calm 30.01 1016 10 16 0.00 0.00
2:53 am 02:53 Clear 58 14.4 57 13.9 97 97 ENE 3 6 29.96 1015 10 16 0.00 0.00
3:53 am 03:53 Clear 60 15.6 58 14.4 93 93 Calm 29.98 1015 10 16 0.00 0.00
4:53 am 04:53 Clear 59 15 57 13.9 93 93 Calm 29.97 1015 10 16 0.00 0.00
5:53 am 05:53 Clear 60 15.6 58 14.4 93 93 NNW 5 7 29.99 1016 10 16 0.00 0.00
6:53 am 06:53 Mostly Cloudy 60 15.6 58 14.4 93 93 N 3 6 30.00 1016 10 16 0.00 0.00
7:53 am 07:53 Sunny 61 16.1 58 14.4 90 90 N 3 6 30.00 1016 10 16 0.00 0.00
8:53 am 08:53 Partly Cloudy 65 18.3 58 14.4 78 78 Calm 30.02 1017 10 16 0.00 0.00
9:53 am 09:53 Partly Cloudy 68 20 61 16.1 78 78 VRB 3 6 30.02 1017 10 16 0.00 0.00
10:34 am 10:34 Cloudy 68 20 63 17.2 84 84 VRB 5 7 30.04 1017 10 16 0.00 0.00
10:53 am 10:53 Mostly Cloudy 69 20.6 64 17.8 84 84 Calm 30.04 1017 10 16 0.00 0.00
11:53 am 11:53 Mostly Cloudy 72 22.2 65 18.3 79 79 E 5 7 30.03 1017 10 16 0.00 0.00
12:00 pm 12:00 Sunny 71 21.7 65 18.3 81 81 VRB 5 7 30.02 1017 10 16 0.00 0.00
12:53 pm 12:53 Mostly Sunny 72 22.2 64 17.8 76 76 S 6 9 30.02 1017 10 16 0.00 0.00
1:53 pm 13:53 Sunny 73 22.8 60 15.6 64 64 SE 9 15 29.98 1015 10 16 0.00 0.00
2:53 pm 14:53 Sunny 74 23.3 58 14.4 57 57 SSE 7 11 29.94 1014 10 16 0.00 0.00
3:53 pm 15:53 Sunny 77 25 60 15.6 56 56 S 8 13 29.91 1013 10 16 0.00 0.00
4:53 pm 16:53 Mostly Cloudy 80 26.7 58 14.4 47 47 SSW 14 22 29.89 1012 10 16 0.00 0.00
5:53 pm 17:53 Mostly Sunny 79 26.1 55 12.8 44 44 SSE 9 15 29.88 1012 10 16 0.00 0.00
6:53 pm 18:53 Sunny 78 25.6 56 13.3 47 47 SSE 9 15 29.86 1011 10 16 0.00 0.00
7:53 pm 19:53 Mostly Cloudy 76 24.4 56 13.3 50 50 SE 5 7 29.86 1011 10 16 0.00 0.00
8:53 pm 20:53 Mostly Clear 74 23.3 56 13.3 54 54 ESE 6 9 29.86 1011 10 16 0.00 0.00
9:53 pm 21:53 Mostly Cloudy 74 23.3 58 14.4 57 57 VRB 6 9 29.85 1011 10 16 0.00 0.00
10:53 pm 22:53 Mostly Clear 73 22.8 61 16.1 66 66 SE 8 13 29.83 1010 10 16 0.00 0.00
11:53 pm 23:53 Mostly Cloudy 73 22.8 62 16.7 69 69 SE 9 15 29.83 1010 10 16 0.00 0.00

Powered by AerisWeather